Weather History for Lebanon, NH

Change the Weather History Date:

Wednesday, January 29, 2014

  Actual Average Record
Temperature  
Mean Temperature 8 °F -  
Max Temperature 21 °F 30 °F 48 °F (1989)
Min Temperature -4 °F 8 °F -18 °F (1988)
Degree Days  
Heating Degree Days 56    
Moisture  
Dew Point -7 °F    
Average Humidity 51    
Maximum Humidity 79    
Minimum Humidity 23    
Precipitation  
Precipitation 0.00 in - - ()
Sea Level Pressure  
Sea Level Pressure 30.09 in    
Wind  
Wind Speed 4 mph (SSW)    
Max Wind Speed 17 mph    
Max Gust Speed 29 mph    
Visibility 10 miles    
Events      
Averages and records for this station are not official NWS values.
T = Trace of Precipitation, MM = Missing Value Source: NWS Daily Summary

Daily Weather History Graph

Daily Weather History Graph

Search for Another Location

Airport:

Trip Planner

Search our weather history database for the weather conditions in past years. The results will help you decide how hot, cold, wet, or windy it might be!

Date:

Astronomy

Jan. 29, 2014 Rise Set
Actual Time 7:08 AM EST 4:56 PM EST
Civil Twilight 6:38 AM EST 5:27 PM EST
Nautical Twilight 6:03 AM EST 6:01 PM EST
Astronomical Twilight 5:29 AM EST 6:35 PM EST
Moon 5:43 AM EST (1/29) 3:52 PM EST (1/29)
Length of Visible Light 10h 48m
Length of Day
9h 47m
Waning Crescent, 2% of the Moon is Illuminated
Jan 29
Waning Crescent
Jan 30
New
Feb 6
First Quarter
Feb 14
Full
Feb 22
Last Quarter

Hourly Weather History & Observations

Time (EST) Temp. Windchill Dew Point Humidity Pressure Visibility Wind Dir Wind Speed Gust Speed Precip Events Conditions
12:53 AM 3.9 °F - -4.0 °F 70% 30.22 in 10.0 mi Calm Calm - N/A   Clear
1:53 AM 3.0 °F - -5.1 °F 69% 30.19 in 10.0 mi Calm Calm - N/A   Partly Cloudy
2:53 AM 3.9 °F - -4.0 °F 70% 30.18 in 10.0 mi Calm Calm - N/A   Mostly Cloudy
3:53 AM 3.9 °F - -2.9 °F 73% 30.16 in 10.0 mi Calm Calm - N/A   Overcast
4:53 AM 3.9 °F - -4.0 °F 70% 30.16 in 10.0 mi Calm Calm - N/A   Partly Cloudy
5:53 AM -0.9 °F - -6.0 °F 79% 30.14 in 10.0 mi Calm Calm - N/A   Clear
6:53 AM -2.9 °F - -9.9 °F 72% 30.13 in 10.0 mi Calm Calm - N/A   Clear
7:53 AM -4.0 °F - -9.9 °F 76% 30.13 in 10.0 mi Calm Calm - N/A   Clear
8:53 AM 1.9 °F - -5.1 °F 72% 30.12 in 10.0 mi Calm Calm - N/A   Clear
9:53 AM 8.1 °F - -2.9 °F 61% 30.10 in 10.0 mi Calm Calm - N/A   Clear
10:53 AM 12.9 °F 1.6 °F -11.0 °F 34% 30.07 in 10.0 mi SW 8.1 mph - N/A   Clear
11:53 AM 16.0 °F 3.6 °F -9.0 °F 32% 30.01 in 10.0 mi SSW 10.4 mph 18.4 mph N/A   Clear
12:53 PM 19.0 °F 4.5 °F -9.0 °F 29% 29.96 in 10.0 mi SW 16.1 mph - N/A   Clear
1:53 PM 21.0 °F 6.6 °F -11.9 °F 23% 29.94 in 10.0 mi SW 17.3 mph 28.8 mph N/A   Clear
2:53 PM 19.9 °F 6.7 °F -11.9 °F 24% 29.95 in 10.0 mi SW 13.8 mph 23.0 mph N/A   Clear
3:15 PM 19.9 °F 5.7 °F -11.0 °F 25% 29.91 in 10.0 mi West 16.1 mph - N/A   Clear
3:53 PM 18.0 °F 3.6 °F -11.0 °F 27% 29.99 in 10.0 mi West 15.0 mph - N/A   Clear
4:53 PM 17.1 °F 3.6 °F -11.0 °F 28% 30.01 in 10.0 mi SW 12.7 mph - N/A   Clear
5:53 PM 15.1 °F 4.2 °F -11.0 °F 31% 30.06 in 10.0 mi SW 8.1 mph - N/A   Clear
6:53 PM 15.1 °F 6.4 °F -9.9 °F 32% 30.09 in 10.0 mi SSW 5.8 mph - N/A   Clear
7:53 PM 12.0 °F 5.9 °F -8.0 °F 41% 30.12 in 10.0 mi South 3.5 mph - N/A   Clear
8:53 PM 6.1 °F -2.8 °F -5.1 °F 60% 30.14 in 10.0 mi SSE 4.6 mph - N/A   Partly Cloudy
9:53 PM 8.1 °F -3.2 °F -5.1 °F 55% 30.17 in 10.0 mi South 6.9 mph - N/A   Scattered Clouds
10:53 PM 8.1 °F -4.3 °F -4.0 °F 58% 30.19 in 10.0 mi South 8.1 mph - N/A   Clear
11:53 PM 6.1 °F -2.8 °F -2.9 °F 67% 30.22 in 10.0 mi South 4.6 mph - N/A   Clear